This is the latest recevied weather packets stored in our database for station/object KI4HRG. If no packets are shown the sender has not sent any weather packets the latest 10 day(s).
| Time | Temp. | Humidity | Pressure | Rain* | Wind** | Luminosity | Snow |
|---|---|---|---|---|---|---|---|
| 1787792267 | 22.22° C | 99% | 1015.2 hPa | 0 mm | - | 0 W/m² | - |
| 1787791966 | 22.22° C | 99% | 1015 hPa | 0 mm | - | 0 W/m² | - |
| 1787791660 | 22.22° C | 99% | 1015.2 hPa | 0 mm | - | 0 W/m² | - |
| 1787791356 | 22.22° C | 99% | 1015.1 hPa | 0 mm | - | 0 W/m² | - |
| 1787791050 | 22.22° C | 99% | 1015.2 hPa | 0 mm | - | 0 W/m² | - |
| 1787790748 | 22.22° C | 99% | 1015.3 hPa | 0 mm | - | 0 W/m² | - |
| 1787790447 | 22.22° C | 99% | 1015.6 hPa | 0 mm | - | 0 W/m² | - |
| 1787790143 | 22.22° C | 99% | 1015.4 hPa | 0 mm | - | 0 W/m² | - |
| 1787789838 | 22.22° C | 99% | 1015.3 hPa | 0 mm | - | 0 W/m² | - |
| 1787789538 | 22.22° C | 99% | 1015.5 hPa | 0 mm | - | 0 W/m² | - |
| 1787789237 | 22.22° C | 99% | 1015.6 hPa | 0 mm | - | 0 W/m² | - |
| 1787788932 | 21.67° C | 99% | 1015.6 hPa | 0 mm | - | 1 W/m² | - |
| 1787788629 | 21.67° C | 99% | 1015.6 hPa | 0 mm | - | 1 W/m² | - |
| 1787788329 | 22.22° C | 99% | 1015.5 hPa | 0 mm | - | 2 W/m² | - |
| 1787788025 | 22.22° C | 99% | 1015.7 hPa | 0 mm | - | 2 W/m² | - |
| 1787787720 | 22.22° C | 99% | 1015.6 hPa | 0 mm | - | 4 W/m² | - |
| 1787787419 | 22.22° C | 99% | 1015.7 hPa | 0 mm | - | 6 W/m² | - |
| 1787787118 | 22.22° C | 99% | 1015.8 hPa | 0 mm | - | 8 W/m² | - |
| 1787786813 | 22.22° C | 99% | 1015.8 hPa | 0 mm | - | 10 W/m² | - |
| 1787786508 | 22.22° C | 99% | 1016.2 hPa | 0 mm | - | 16 W/m² | - |
| 1787786203 | 22.22° C | 99% | 1016.3 hPa | 1.27 mm | - | 17 W/m² | - |
| 1787785899 | 22.22° C | 99% | 1016.5 hPa | 1.27 mm | - | 18 W/m² | - |
| 1787785594 | 22.22° C | 99% | 1016.3 hPa | 1.78 mm | - | 17 W/m² | - |
| 1787785289 | 22.22° C | 99% | 1016.3 hPa | 3.56 mm | - | 12 W/m² | - |
| 1787784988 | 22.22° C | 99% | 1016.2 hPa | 4.83 mm | - | 9 W/m² | - |
* Rain latest hour (hover to see other rain measurements)
** Current wind speed in m/s (hover to see current wind gust speed)